Location: Budapest
(47.4979°N, 19.0402°E)
Time: 23:22:33
(UTC+02:00)

Envisat - Visible Passes

Search period start: 21 May 2024 00:00
Search period end: 31 May 2024 00:00
Orbit: 762 x 764 km, 98.3° (Epoch: 21 May)

Date Brightness Start Highest point End Pass type
(mag) Time Alt. Az. Time Alt. Az. Time Alt. Az.
21 May 4.9 03:10:03 10° NE 03:14:13 25° E 03:18:22 10° SSE visible
22 May 5.6 02:34:36 10° ENE 02:36:24 12° E 02:38:11 10° ESE visible
22 May 3.1 04:11:02 10° NNE 04:16:09 84° ESE 04:21:13 10° SSW visible
23 May 4.2 03:33:53 10° NNE 03:38:40 40° E 03:43:25 10° SSE visible
24 May 5.2 02:57:21 10° NE 03:00:59 20° E 03:04:37 10° SE visible
25 May 3.4 03:57:58 10° NNE 04:03:02 66° ESE 04:08:04 10° S visible
26 May 4.6 03:20:59 10° NNE 03:25:29 31° E 03:29:58 10° SSE visible
27 May 5.5 02:44:49 10° NE 02:47:44 15° E 02:50:37 10° ESE visible
28 May 3.8 03:44:56 10° NNE 03:49:53 51° E 03:54:49 10° S visible
29 May 4.9 03:08:08 10° NE 03:12:16 24° E 03:16:22 10° SSE visible
30 May 5.6 02:32:49 10° ENE 02:34:26 11° E 02:36:03 10° ESE visible
30 May 3.1 04:09:05 10° NNE 04:14:12 83° ESE 04:19:17 10° SSW visible
